Terminal Aerodrome Forecast
Issued by NWS

Home | Current Version | Previous Version | Graphics & Text | Print | Product List | Glossary On
Versions: 1 2 3 4 5 6 7 8 9 10 11 12 13 14 15 16 17 18 19 20 21
000
FTUS43 KICT 272338
TAFSLN
TAF
KSLN 272338Z 2800/2824 12010KT P6SM OVC070
     FM280400 16010KT P6SM OVC045
     FM281200 16011KT 1SM -SN OVC015=

USA.gov is the U.S. government's official web portal to all federal, state and local government web resources and services.